Regional Weather Roundup
Issued by NWS

Home | Current Version | Previous Version | Text Only | Print | Product List | Glossary Off
Versions: 1 2 3 4 5 6 7 8 9 10 11 12 13 14 15 16 17 18 19 20 21 22 23 24 25 26 27 28 29 30 31 32 33 34 35 36 37 38 39 40 41 42 43 44 45 46 47 48 49 50

000
ASUS43 KLMK 202310
RWRKY
SDFRWRKY ALL
KENTUCKY REGIONAL WEATHER ROUNDUP
NATIONAL WEATHER SERVICE LOUISVILLE KY
600 PM EST THU NOV 20 2014

NOTE "FAIR" INDICATES FEW OR NO CLOUDS BELOW 12,000 FEET
WITH NO SIGNIFICANT WEATHER AND/OR OBSTRUCTIONS TO VISIBILITY.

KYZ001>023-026-027-061>063-070>075-210000-
WESTERN AND SOUTH CENTRAL KENTUCKY

CITY           SKY/WX    TMP DP  RH WIND       PRES   REMARKS
PADUCAH        CLEAR     37  22  54 CALM      30.22S
HENDERSON      CLOUDY    34  19  55 CALM      30.24S
OWENSBORO      MOCLDY    32  21  64 N9        30.25R WCI  24
HOPKINSVILLE   NOT AVBL
BOWLING GREEN  CLEAR     37  19  48 W6        30.22R WCI  32
GLASGOW        CLEAR     35  20  55 W3        30.21R
$$

KYZ024-025-028>034-038-045-046-053-210000-
NORTH CENTRAL KENTUCKY

CITY           SKY/WX    TMP DP  RH WIND       PRES   REMARKS
LOUISVILLE/SDF CLEAR     31  17  56 W8        30.22R WCI  23
LOUISVILLE/LOU CLEAR     31  16  54 W8        30.22R WCI  23
FORT KNOX      CLEAR     28  18  65 W7        30.20R WCI  21
$$

KYZ035>037-039>044-047>052-055>060-089>105-210000-
NORTHEAST KENTUCKY

CITY           SKY/WX    TMP DP  RH WIND       PRES   REMARKS
LEXINGTON      CLEAR     28  17  63 W6        30.18R WCI  22
COVINGTON      PTCLDY    28  13  53 SW6       30.16R WCI  22
FRANKFORT      CLEAR     30  16  56 W3        30.19R
$$

KYZ054-064>069-076>088-106>120-210000-
SOUTHEAST KENTUCKY

CITY           SKY/WX    TMP DP  RH WIND       PRES   REMARKS
JACKSON        CLEAR     34  17  50 NW8       30.13R WCI  27
LONDON         CLEAR     37  15  40 W6        30.15R WCI  32
SOMERSET       CLEAR     36  18  48 NW5       30.18S WCI  32
MIDDLESBORO    CLEAR     39  22  51 CALM      30.14S
MONTICELLO     CLEAR     36  18  48 W6        30.21R WCI  31
$$




USA.gov is the U.S. government's official web portal to all federal, state and local government web resources and services.